Location: Terra Rouge Observatory
(46.0000°N, 62.7500°W)
Time: 06:55:19
(UTC-04:00)

Amateur Radio Satellites - All Passes

Search period start: 30 January 2015 06:25
Search period end: 31 January 2015 06:25
Location: Terra Rouge Observatory, 46.0000°N, 62.7500°W

Satellite Date Start Highest point End Downlink Frequencies (MHz)
Time Altitude Azimuth
STRAND 1 30 Jan 06:30:35 06:35:37 62° 258° (WSW) 06:40:44 437.568
CUSAT 1 30 Jan 06:36:06 06:41:50 19° 306° (NW) 06:47:05 437.405
RS-15 30 Jan 06:57:07 07:07:42 51° 322° (NW) 07:18:28 29.354- 29.394
Cubesat XI-IV 30 Jan 07:12:25 07:17:42 57° 290° (WNW) 07:22:57 437.490
YUBILEINY 30 Jan 07:13:21 07:22:06 72° 265° (W) 07:30:50 435.215
HO-68 30 Jan 07:19:38 07:21:11 11° 81° (E) 07:23:19 435.675
JAS-2 30 Jan 07:22:42 07:24:43 12° 304° (NW) 07:26:28 435.910
PCSat 30 Jan 07:28:51 07:30:42 11° 337° (NNW) 07:32:24 145.827
CUTE-I 30 Jan 07:32:21 07:37:22 40° 293° (WNW) 07:42:20 437.470
BRITE-PL 30 Jan 07:39:03 07:42:44 18° 86° (E) 07:46:33 437.365/2234.400
SEEDS 30 Jan 08:00:47 08:02:13 12° 86° (E) 08:03:53 437.485
AO-7 30 Jan 08:11:50 08:13:10 10° 327° (NNW) 08:14:08 29.400- 29.500
ANTELSAT 30 Jan 08:17:34 08:18:49 11° 58° (ENE) 08:20:17 437.575/2403.000
VERMONT LUNAR 30 Jan 08:21:01 08:23:10 16° 157° (SSE) 08:25:21 437.305
TIGRISAT 30 Jan 08:24:01 08:25:55 13° 59° (ENE) 08:28:01 435.000
COMPASS 1 30 Jan 08:24:51 08:27:41 18° 90° (E) 08:30:37 437.405
CANX-2 30 Jan 08:41:15 08:45:15 40° 97° (E) 08:49:15 2200.000
QB50P1 30 Jan 08:47:21 08:48:45 12° 60° (ENE) 08:50:20 145.935-145.965
AAUSAT CUBESAT 2 30 Jan 08:49:51 08:53:28 28° 94° (E) 08:57:06 437.432
CINEMA 3 30 Jan 08:54:44 08:58:32 23° 90° (E) 09:02:18 145.822/145.860
BUGSAT 1 30 Jan 08:55:11 08:55:25 10° 59° (ENE) 08:55:51 437.445
POLYITAN 1 30 Jan 09:01:26 09:04:03 16° 62° (ENE) 09:06:49 437.675
UWE-3 30 Jan 09:02:51 09:04:50 13° 86° (E) 09:07:00 435.000/436.395/437.385
HO-68 30 Jan 09:03:27 09:10:35 64° 102° (ESE) 09:17:41 435.675
CUTE 1.7 + AOD 2 30 Jan 09:05:08 09:09:22 67° 101° (E) 09:13:33 437.475
GOMX 1 30 Jan 09:06:39 09:12:08 71° 100° (E) 09:17:20 467.674
Oscar 11 30 Jan 09:10:25 09:13:57 24° 93° (E) 09:17:30 145.826/435.025
YUBILEINY 30 Jan 09:12:45 09:17:30 15° 285° (WNW) 09:21:42 435.215
RS-15 30 Jan 09:14:04 09:23:22 29° 354° (N) 09:32:54 29.354- 29.394
DOVE 4 30 Jan 09:14:22 09:19:34 61° 99° (E) 09:24:30 437.250
UNISAT 6 30 Jan 09:14:38 09:18:55 36° 69° (ENE) 09:23:13 437.425
BRITE-PL 30 Jan 09:16:13 09:21:56 74° 286° (WNW) 09:27:24 437.365/2234.400
POPSAT HIP 1 30 Jan 09:20:02 09:23:24 24° 66° (ENE) 09:26:54 437.405
DUCHIFAT 1 30 Jan 09:22:02 09:25:28 24° 66° (ENE) 09:28:58 145.980
BEESAT 2 30 Jan 09:22:16 09:25:24 20° 37° (NE) 09:28:33 435.950
AIST 2 30 Jan 09:23:45 09:25:49 13° 28° (NNE) 09:27:59 435.215
PHONESAT 2.4 30 Jan 09:24:56 09:27:45 22° 162° (SSE) 09:30:37 2401.200-2431.200
SEEDS 30 Jan 09:34:26 09:38:39 69° 285° (WNW) 09:42:47 437.485
BEESAT 3 30 Jan 09:35:11 09:38:43 26° 41° (NE) 09:42:15 437.485
UKube-1 30 Jan 09:46:08 09:50:02 31° 96° (E) 09:53:57 .
SO-50 30 Jan 09:47:16 09:51:16 31° 116° (ESE) 09:55:27 436.795
ANTELSAT 30 Jan 09:50:12 09:54:55 78° 76° (ENE) 09:59:38 437.575/2403.000
NANOSAT C BR1 30 Jan 09:56:00 10:00:09 53° 72° (ENE) 10:04:23 145.865
TIGRISAT 30 Jan 09:57:19 10:02:03 88° 76° (ENE) 10:06:46 435.000
VERMONT LUNAR 30 Jan 09:57:35 10:00:43 31° 173° (S) 10:03:52 437.305
HUMSAT D 30 Jan 09:58:20 10:01:35 22° 92° (E) 10:04:53 437.325/437.525
CUBEBUG 2 30 Jan 09:59:37 10:04:10 57° 100° (E) 10:08:33 437.445
COMPASS 1 30 Jan 09:59:42 10:03:41 44° 288° (WNW) 10:07:38 437.405
ZACube-1 30 Jan 10:02:48 10:07:03 43° 97° (E) 10:11:12 437.345
DX 1 30 Jan 10:07:54 10:12:15 55° 101° (E) 10:16:35 434.975-435.025
QB50P2 30 Jan 10:10:47 10:15:05 77° 75° (ENE) 10:19:25 145.880/145.840
FUNcube-1 30 Jan 10:14:20 10:18:44 56° 100° (E) 10:22:58 145.935
DELFI C3 30 Jan 10:14:22 10:18:26 85° 282° (WNW) 10:22:29 145.870
CANX-2 30 Jan 10:17:45 10:21:00 21° 294° (WNW) 10:24:08 2200.000
QB50P1 30 Jan 10:19:46 10:24:03 87° 256° (WSW) 10:28:23 145.935-145.965
AAUSAT CUBESAT 2 30 Jan 10:25:32 10:29:07 28° 292° (WNW) 10:32:37 437.432
BUGSAT 1 30 Jan 10:26:09 10:30:15 86° 77° (ENE) 10:34:28 437.445
CINEMA 3 30 Jan 10:31:22 10:36:01 44° 290° (WNW) 10:40:26 145.822/145.860
POLYITAN 1 30 Jan 10:35:20 10:39:36 59° 259° (W) 10:43:54 437.675
AISAT 30 Jan 10:37:24 10:41:45 45° 99° (E) 10:46:05 437.250
UWE-3 30 Jan 10:37:30 10:42:02 70° 286° (WNW) 10:46:23 435.000/436.395/437.385
CUTE 1.7 + AOD 2 30 Jan 10:42:35 10:44:50 14° 298° (WNW) 10:46:56 437.475
ESTCUBE 1 30 Jan 10:43:58 10:47:39 25° 93° (E) 10:51:24 437.505/2401.250
GOMX 1 30 Jan 10:45:48 10:49:42 20° 299° (WNW) 10:53:21 467.674
Oscar 11 30 Jan 10:46:18 10:50:14 34° 291° (WNW) 10:54:07 145.826/435.025
UNISAT 6 30 Jan 10:51:41 10:55:47 28° 266° (W) 10:59:49 437.425
HO-68 30 Jan 10:51:50 10:57:55 30° 302° (WNW) 11:03:52 435.675
DOVE 4 30 Jan 10:52:59 10:56:52 21° 298° (WNW) 11:00:31 437.250
AIST 1 30 Jan 10:53:13 10:57:08 38° 92° (E) 11:01:07
POPSAT HIP 1 30 Jan 10:55:09 10:59:10 37° 263° (W) 11:03:11 437.405
BRITE-PL 30 Jan 10:56:41 10:59:32 14° 304° (NW) 11:02:06 437.365/2234.400
DUCHIFAT 1 30 Jan 10:57:14 11:01:11 36° 263° (W) 11:05:10 145.980
PCSat 30 Jan 10:59:46 11:02:52 15° 30° (NNE) 11:06:04 145.827
50 SAT 30 Jan 10:59:48 11:03:52 74° 102° (ESE) 11:07:53 437.505
BEESAT 2 30 Jan 10:59:53 11:04:04 67° 237° (WSW) 11:08:10 435.950
AIST 2 30 Jan 11:01:08 11:05:24 58° 50° (NE) 11:09:35 435.215
PHONESAT 2.4 30 Jan 11:02:31 11:05:50 34° 179° (S) 11:09:11 2401.200-2431.200
VELOX 1 30 Jan 11:05:00 11:09:32 84° 103° (ESE) 11:14:02 145.980
Oscar 19 30 Jan 11:09:42 11:12:17 14° 57° (ENE) 11:15:05 437.125/150
CUBEBUG 1 30 Jan 11:10:12 11:14:26 41° 98° (E) 11:18:40 437.445
BEESAT 3 30 Jan 11:13:03 11:17:03 44° 240° (WSW) 11:20:57 437.485
GONETS M04 30 Jan 11:19:39 11:27:30 37° 67° (ENE) 11:35:26
UKube-1 30 Jan 11:22:23 11:26:09 28° 293° (WNW) 11:29:50 .
TISAT 1 30 Jan 11:25:55 11:28:25 15° 89° (E) 11:31:04 437.305
SO-50 30 Jan 11:27:21 11:31:43 40° 316° (NW) 11:36:15 436.795
RS-15 30 Jan 11:29:27 11:39:41 39° 27° (NNE) 11:50:26 29.354- 29.394
ANTELSAT 30 Jan 11:30:04 11:32:21 13° 273° (W) 11:34:24 437.575/2403.000
HUMSAT D 30 Jan 11:33:36 11:37:34 37° 290° (WNW) 11:41:25 437.325/437.525
NANOSAT C BR1 30 Jan 11:33:40 11:36:25 16° 271° (W) 11:39:02 145.865
VERMONT LUNAR 30 Jan 11:35:20 11:38:24 29° 190° (S) 11:41:29 437.305
CUBEBUG 2 30 Jan 11:37:19 11:40:27 18° 298° (WNW) 11:43:24 437.445
TIGRISAT 30 Jan 11:38:00 11:39:33 11° 275° (W) 11:40:50 435.000
ZACube-1 30 Jan 11:39:46 11:43:11 21° 295° (WNW) 11:46:27 437.345
DX 1 30 Jan 11:45:09 11:48:09 18° 298° (WNW) 11:51:01 434.975-435.025
QB50P2 30 Jan 11:50:17 11:51:39 11° 274° (W) 11:52:47 145.880/145.840
FUNcube-1 30 Jan 11:51:43 11:54:41 17° 298° (WNW) 11:57:28 145.935
AISAT 30 Jan 12:14:38 12:18:08 22° 296° (WNW) 12:21:32 437.250
ESTCUBE 1 30 Jan 12:20:28 12:24:40 38° 291° (WNW) 12:28:50 437.505/2401.250
SWISSCUBE 30 Jan 12:22:15 12:23:23 11° 85° (E) 12:24:48 437.505
SPROUT 30 Jan 12:27:08 12:31:29 69° 102° (ESE) 12:35:48 437.525
Gurwin Techsat 1B 30 Jan 12:30:37 12:34:14 19° 60° (ENE) 12:38:00 435.225
AIST 1 30 Jan 12:31:43 12:35:00 21° 291° (WNW) 12:38:13
BEESAT 30 Jan 12:36:40 12:39:10 14° 88° (E) 12:41:54 436.000
50 SAT 30 Jan 12:36:48 12:38:28 12° 299° (WNW) 12:39:58 437.505
AIST 2 30 Jan 12:40:43 12:43:39 18° 248° (WSW) 12:46:25 435.215
PHONESAT 2.4 30 Jan 12:40:55 12:43:58 25° 195° (SSW) 12:47:00 2401.200-2431.200
ITUPSAT 1 30 Jan 12:41:03 12:43:51 16° 89° (E) 12:46:51 437.325
PCSat 30 Jan 12:42:09 12:47:32 58° 52° (NE) 12:52:53 145.827
VELOX 1 30 Jan 12:43:25 12:45:32 13° 301° (WNW) 12:47:29 145.980
Oscar 19 30 Jan 12:45:45 12:50:57 87° 80° (E) 12:56:12 437.125/150
CUBEBUG 1 30 Jan 12:47:05 12:50:37 23° 295° (WNW) 12:54:04 437.445
TISAT 1 30 Jan 13:00:26 13:04:40 56° 288° (WNW) 13:08:51 437.305
ITAMSAT 1 30 Jan 13:04:39 13:09:37 50° 70° (ENE) 13:14:40 435.822/435.867
SO-50 30 Jan 13:11:34 13:13:38 12° 339° (NNW) 13:15:37 436.795
VERMONT LUNAR 30 Jan 13:14:12 13:15:55 13° 205° (SSW) 13:17:34 437.305
GONETS M04 30 Jan 13:16:22 13:24:47 56° 269° (W) 13:33:09
DANDE 30 Jan 13:25:00 13:28:35 15° 49° (NE) 13:32:00 436.750
HORYU 2 30 Jan 13:29:52 13:32:55 19° 63° (ENE) 13:36:06 437.375
AO-7 30 Jan 13:33:12 13:39:45 28° 52° (NE) 13:46:30 29.400- 29.500
RS-15 30 Jan 13:42:16 13:53:39 89° 232° (SW) 14:05:33 29.354- 29.394
CUSAT 1 30 Jan 13:47:16 13:52:04 22° 56° (ENE) 13:56:07 437.405
SWISSCUBE 30 Jan 13:57:14 14:02:04 90° 116° (ESE) 14:06:51 437.505
SPROUT 30 Jan 14:04:39 14:07:06 15° 299° (WNW) 14:09:24 437.525
STARS 30 Jan 14:06:04 14:08:37 15° 89° (E) 14:11:19 437.465
Gurwin Techsat 1B 30 Jan 14:08:26 14:13:44 69° 258° (WSW) 14:19:04 435.225
JAS-2 30 Jan 14:10:14 14:11:07 11° 55° (NE) 14:12:14 435.910
BEESAT 30 Jan 14:12:51 14:17:38 71° 287° (WNW) 14:22:23 436.000
KKS-1 30 Jan 14:14:15 14:18:04 27° 94° (E) 14:21:56 437.445
ITUPSAT 1 30 Jan 14:17:32 14:22:18 65° 287° (WNW) 14:27:03 437.325
PCSat 30 Jan 14:26:16 14:30:37 24° 251° (WSW) 14:34:50 145.827
Oscar 19 30 Jan 14:28:37 14:31:08 13° 274° (W) 14:33:22 437.125/150
ITAMSAT 1 30 Jan 14:45:17 14:49:27 24° 268° (W) 14:53:32 435.822/435.867
HORYU 2 30 Jan 15:04:49 15:09:15 54° 260° (W) 15:13:42 437.375
O/OREOS (USA 219) 30 Jan 15:05:36 15:08:19 16° 101° (E) 15:11:13 437.305
DANDE 30 Jan 15:06:57 15:13:53 76° 76° (ENE) 15:18:58 436.750
GONETS M04 30 Jan 15:18:33 15:19:49 10° 289° (WNW) 15:20:22
AO-7 30 Jan 15:23:22 15:31:46 84° 252° (WSW) 15:40:13 29.400- 29.500
CUSAT 1 30 Jan 15:29:43 15:36:00 60° 265° (W) 15:40:36 437.405
SWISSCUBE 30 Jan 15:36:59 15:39:18 13° 302° (WNW) 15:41:27 437.505
STARS 30 Jan 15:41:09 15:45:34 60° 287° (WNW) 15:49:56 437.465
CUTE-I 30 Jan 15:41:35 15:42:47 11° 54° (NE) 15:44:16 437.470
M-CUBED/EXP-1 PRIME 30 Jan 15:49:53 15:53:11 59° 107° (ESE) 15:56:33 437.505
JAS-2 30 Jan 15:50:05 15:55:27 70° 73° (ENE) 16:00:38 435.910
KKS-1 30 Jan 15:50:42 15:54:47 34° 292° (WNW) 15:58:47 437.445
BEESAT 30 Jan 15:53:48 15:54:43 10° 304° (NW) 15:55:23 436.000
RS-15 30 Jan 15:55:54 16:04:52 26° 256° (WSW) 16:13:38 29.354- 29.394
MOZHAYETS 4 30 Jan 16:02:52 16:05:51 17° 89° (E) 16:08:59
AUBIESAT-1 30 Jan 16:22:03 16:25:19 58° 292° (WNW) 16:28:40 437.475
SO-50 30 Jan 16:36:06 16:39:04 16° 27° (NNE) 16:42:08 436.795
O/OREOS (USA 219) 30 Jan 16:42:52 16:47:19 58° 298° (WNW) 16:51:49 437.305
DANDE 30 Jan 16:52:03 16:56:10 17° 282° (WNW) 16:59:27 436.750
Cubesat XI-IV 30 Jan 16:57:23 17:02:24 44° 68° (ENE) 17:07:30 437.490
CUTE-I 30 Jan 17:16:42 17:21:56 63° 72° (ENE) 17:27:15 437.470
AO-7 30 Jan 17:20:12 17:25:58 19° 274° (W) 17:31:19 29.400- 29.500
M-CUBED/EXP-1 PRIME 30 Jan 17:26:56 17:27:50 11° 303° (WNW) 17:28:37 437.505
PRISM 30 Jan 17:28:25 17:30:04 12° 88° (E) 17:31:57 437.425
JAS-2 30 Jan 17:37:57 17:41:15 16° 272° (W) 17:44:14 435.910
MOZHAYETS 4 30 Jan 17:39:01 17:43:30 54° 288° (WNW) 17:47:57
HO-68 30 Jan 17:51:19 17:54:47 15° 47° (NE) 17:58:34 435.675
CUBESAT XI-V 30 Jan 17:58:45 18:02:21 22° 91° (E) 18:06:03 437.345
SO-50 30 Jan 18:15:47 18:20:40 60° 50° (NE) 18:25:33 436.795
YUBILEINY 30 Jan 18:22:23 18:29:18 29° 82° (E) 18:36:29 435.215
Cubesat XI-IV 30 Jan 18:38:11 18:42:44 27° 267° (W) 18:47:14 437.490
STRAND 1 30 Jan 18:38:41 18:43:26 37° 96° (E) 18:48:13 437.568
GOMX 1 30 Jan 18:41:25 18:44:23 16° 58° (ENE) 18:47:38 467.674
DOVE 4 30 Jan 18:47:41 18:49:56 13° 57° (ENE) 18:52:26 437.250
BRITE-PL 30 Jan 18:51:54 18:56:04 25° 63° (ENE) 19:00:35 437.365/2234.400
SEEDS 30 Jan 18:55:49 18:57:47 13° 62° (ENE) 18:59:55 437.485
CUTE-I 30 Jan 18:58:45 19:02:34 19° 271° (W) 19:06:14 437.470
PRISM 30 Jan 19:01:59 19:06:07 65° 287° (WNW) 19:10:14 437.425
COMPASS 1 30 Jan 19:19:11 19:22:05 19° 65° (ENE) 19:25:06 437.405
HO-68 30 Jan 19:34:17 19:41:15 61° 68° (ENE) 19:48:18 435.675
CUBESAT XI-V 30 Jan 19:35:34 19:40:03 45° 290° (WNW) 19:44:31 437.345
CANX-2 30 Jan 19:36:39 19:40:41 41° 71° (ENE) 19:44:44 2200.000
AAUSAT CUBESAT 2 30 Jan 19:43:32 19:47:07 28° 68° (ENE) 19:50:46 437.432
SO-50 30 Jan 19:57:04 20:00:53 22° 247° (WSW) 20:04:35 436.795
CINEMA 3 30 Jan 19:58:28 20:02:45 30° 66° (ENE) 20:07:10 145.822/145.860
CUTE 1.7 + AOD 2 30 Jan 20:00:20 20:04:35 66° 74° (ENE) 20:08:51 437.475
UWE-3 30 Jan 20:02:14 20:05:13 17° 62° (ENE) 20:08:20 435.000/436.395/437.385
Oscar 11 30 Jan 20:07:44 20:11:22 27° 67° (ENE) 20:15:05 145.826/435.025
GOMX 1 30 Jan 20:16:35 20:21:45 89° 243° (WSW) 20:27:16 467.674
YUBILEINY 30 Jan 20:16:51 20:25:31 69° 283° (WNW) 20:34:13 435.215
STRAND 1 30 Jan 20:18:01 20:22:36 32° 294° (WNW) 20:27:06 437.568
DOVE 4 30 Jan 20:21:45 20:26:52 78° 74° (ENE) 20:32:13 437.250
SEEDS 30 Jan 20:28:52 20:33:07 72° 257° (WSW) 20:37:23 437.485
BRITE-PL 30 Jan 20:29:13 20:34:14 52° 262° (W) 20:39:39 437.365/2234.400
VELOX 1 30 Jan 20:31:33 20:33:32 13° 60° (ENE) 20:35:44 145.980
ISS 30 Jan 20:43:13 20:45:02 14° 135° (SE) 20:46:55 145.825
UKube-1 30 Jan 20:43:32 20:47:32 38° 69° (ENE) 20:51:35 .
HUMSAT D 30 Jan 20:52:56 20:56:21 23° 66° (ENE) 20:59:50 437.325/437.525
COMPASS 1 30 Jan 20:53:27 20:57:32 46° 261° (W) 21:01:37 437.405
AIST 1 30 Jan 20:58:52 21:01:04 14° 65° (ENE) 21:03:26
CUBEBUG 2 30 Jan 20:59:47 21:04:31 66° 74° (ENE) 21:09:17 437.445
ZACube-1 30 Jan 21:00:54 21:05:20 48° 71° (ENE) 21:09:48 437.345
DELFI C3 30 Jan 21:04:48 21:08:53 84° 76° (ENE) 21:12:59 145.870
DX 1 30 Jan 21:05:50 21:10:09 67° 73° (ENE) 21:14:31 434.975-435.025
FUNcube-1 30 Jan 21:12:11 21:16:44 62° 73° (ENE) 21:21:19 145.935
CANX-2 30 Jan 21:13:33 21:16:50 21° 268° (W) 21:20:02 2200.000
AAUSAT CUBESAT 2 30 Jan 21:19:05 21:22:46 29° 265° (W) 21:26:26 437.432
HO-68 30 Jan 21:23:20 21:29:29 29° 267° (W) 21:35:30 435.675
CINEMA 3 30 Jan 21:35:12 21:39:51 38° 264° (W) 21:44:33 145.822/145.860
UWE-3 30 Jan 21:36:39 21:41:19 65° 259° (W) 21:46:02 435.000/436.395/437.385
AISAT 30 Jan 21:37:47 21:42:08 55° 72° (ENE) 21:46:34 437.250
CUTE 1.7 + AOD 2 30 Jan 21:38:58 21:41:03 13° 273° (W) 21:42:55 437.475
ANTELSAT 30 Jan 21:41:58 21:44:00 13° 87° (E) 21:46:13 437.575/2403.000
Oscar 11 30 Jan 21:43:33 21:47:30 32° 264° (W) 21:51:24 145.826/435.025
ESTCUBE 1 30 Jan 21:46:11 21:50:05 31° 68° (ENE) 21:54:05 437.505/2401.250
TIGRISAT 30 Jan 21:48:24 21:50:54 15° 88° (E) 21:53:33 435.000
50 SAT 30 Jan 21:49:20 21:53:26 64° 73° (ENE) 21:57:33 437.505
QB50P2 30 Jan 21:56:31 21:57:33 11° 86° (E) 21:58:49 145.880/145.840
GOMX 1 30 Jan 21:58:22 22:00:51 13° 277° (W) 22:03:04 467.674
DOVE 4 30 Jan 22:02:17 22:05:22 15° 275° (W) 22:08:17 437.250
QB50P1 30 Jan 22:04:25 22:06:26 13° 88° (E) 22:08:40 145.935-145.965
VELOX 1 30 Jan 22:05:07 22:09:34 81° 257° (WSW) 22:14:04 145.980
BUGSAT 1 30 Jan 22:08:31 22:09:42 11° 86° (E) 22:11:09 437.445
CUBEBUG 1 30 Jan 22:08:53 22:13:02 47° 71° (ENE) 22:17:17 437.445
ISS 30 Jan 22:17:49 22:21:06 87° 152° (SSE) 22:24:25 145.825
YUBILEINY 30 Jan 22:19:11 22:24:29 16° 308° (NW) 22:29:22 435.215
POLYITAN 1 30 Jan 22:19:28 22:22:35 19° 91° (E) 22:25:46 437.675
UKube-1 30 Jan 22:20:22 22:23:52 23° 267° (W) 22:27:17 .
TISAT 1 30 Jan 22:21:08 22:23:52 17° 63° (ENE) 22:26:44 437.305
HUMSAT D 30 Jan 22:27:52 22:31:58 39° 263° (W) 22:36:04 437.325/437.525
AIST 1 30 Jan 22:34:56 22:39:16 64° 264° (W) 22:43:36
POPSAT HIP 1 30 Jan 22:38:09 22:41:55 29° 95° (E) 22:45:43 437.405
ZACube-1 30 Jan 22:38:32 22:42:00 20° 270° (W) 22:45:22 437.345
CUBEBUG 2 30 Jan 22:38:46 22:41:45 16° 272° (W) 22:44:35 437.445
DUCHIFAT 1 30 Jan 22:39:49 22:43:38 30° 95° (E) 22:47:26 145.980
UNISAT 6 30 Jan 22:40:50 22:45:13 52° 99° (E) 22:49:28 437.425
DX 1 30 Jan 22:44:44 22:46:58 13° 272° (W) 22:48:59 434.975-435.025
FUNcube-1 30 Jan 22:50:39 22:53:34 16° 272° (W) 22:56:19 145.935
NANOSAT C BR1 30 Jan 23:14:28 23:18:48 71° 102° (ESE) 23:23:04 145.865
AISAT 30 Jan 23:16:16 23:19:12 17° 271° (W) 23:21:59 437.250
ANTELSAT 30 Jan 23:16:58 23:21:25 67° 286° (WNW) 23:25:44 437.575/2403.000
ESTCUBE 1 30 Jan 23:23:02 23:26:59 30° 265° (W) 23:30:56 437.505/2401.250
SPROUT 30 Jan 23:23:36 23:27:54 72° 75° (ENE) 23:32:16 437.525
TIGRISAT 30 Jan 23:23:45 23:28:10 58° 288° (WNW) 23:32:26 435.000
50 SAT 30 Jan 23:27:07 23:29:03 13° 272° (W) 23:30:47 437.505
QB50P2 30 Jan 23:29:47 23:34:08 79° 285° (WNW) 23:38:25 145.880/145.840
SWISSCUBE 30 Jan 23:30:29 23:33:40 19° 62° (ENE) 23:37:00 437.505
QB50P1 30 Jan 23:38:34 23:42:51 64° 287° (WNW) 23:47:06 145.935-145.965
BUGSAT 1 30 Jan 23:41:32 23:45:50 77° 285° (WNW) 23:50:06 437.445
BEESAT 30 Jan 23:45:22 23:49:03 23° 64° (ENE) 23:52:50 436.000
CUBEBUG 1 30 Jan 23:46:36 23:49:44 19° 269° (W) 23:52:47 437.445
ITUPSAT 1 30 Jan 23:50:10 23:53:58 25° 64° (ENE) 23:57:53 437.325
POLYITAN 1 30 Jan 23:54:39 23:58:47 43° 289° (WNW) 00:02:51 437.675
ISS 30 Jan 23:54:51 23:57:52 32° 351° (N) 00:00:54 145.825
TISAT 1 30 Jan 23:55:11 23:59:21 53° 260° (W) 00:03:33 437.305
POPSAT HIP 1 31 Jan 00:14:03 00:17:49 29° 293° (WNW) 00:21:30 437.405
DUCHIFAT 1 31 Jan 00:15:43 00:19:27 28° 293° (WNW) 00:23:06 145.980
UNISAT 6 31 Jan 00:18:31 00:21:39 19° 297° (WNW) 00:24:38 437.425
GONETS M04 31 Jan 00:24:15 00:31:58 38° 86° (E) 00:39:49
NANOSAT C BR1 31 Jan 00:51:54 00:54:11 14° 299° (WNW) 00:56:18 145.865
Oscar 19 31 Jan 00:55:26 00:59:38 25° 92° (E) 01:03:54 437.125/150
BEESAT 2 31 Jan 00:59:16 01:01:00 13° 110° (ESE) 01:02:56 435.950
SPROUT 31 Jan 01:02:47 01:04:37 12° 273° (W) 01:06:14 437.525
STARS 31 Jan 01:05:35 01:08:45 20° 63° (ENE) 01:12:03 437.465
SWISSCUBE 31 Jan 01:06:27 01:11:09 60° 259° (W) 01:15:53 437.505
M-CUBED/EXP-1 PRIME 31 Jan 01:08:46 01:10:38 14° 59° (ENE) 01:12:34 437.505
BEESAT 3 31 Jan 01:10:22 01:13:11 19° 113° (ESE) 01:16:10 437.485
O/OREOS (USA 219) 31 Jan 01:11:06 01:15:34 49° 60° (ENE) 01:20:03 437.305
KKS-1 31 Jan 01:14:51 01:18:53 34° 68° (ENE) 01:22:59 437.445
ITAMSAT 1 31 Jan 01:16:26 01:19:07 14° 87° (E) 01:22:02 435.822/435.867
BEESAT 31 Jan 01:22:05 01:26:40 46° 261° (W) 01:31:16 436.000
ITUPSAT 1 31 Jan 01:27:11 01:31:42 42° 262° (W) 01:36:14 437.325
ISS 31 Jan 01:31:50 01:34:53 33° 11° (N) 01:37:57 145.825
AUBIESAT-1 31 Jan 01:39:09 01:42:15 24° 63° (ENE) 01:45:14 437.475
GONETS M04 31 Jan 02:20:04 02:28:36 54° 287° (WNW) 02:37:06
Gurwin Techsat 1B 31 Jan 02:22:14 02:27:12 39° 96° (E) 02:32:12 435.225
Oscar 19 31 Jan 02:34:19 02:39:14 45° 291° (WNW) 02:44:06 437.125/150
BEESAT 2 31 Jan 02:34:33 02:38:42 76° 307° (NW) 02:42:55 435.950
DANDE 31 Jan 02:38:10 02:43:46 21° 81° (E) 02:49:48 436.750
AIST 2 31 Jan 02:39:46 02:43:55 55° 121° (ESE) 02:48:08 435.215
STARS 31 Jan 02:40:36 02:44:56 49° 261° (W) 02:49:18 437.465
M-CUBED/EXP-1 PRIME 31 Jan 02:41:28 02:45:22 58° 253° (WSW) 02:48:58 437.505
BEESAT 3 31 Jan 02:46:58 02:51:01 52° 311° (NW) 02:55:07 437.485
O/OREOS (USA 219) 31 Jan 02:51:18 02:54:41 20° 258° (WSW) 02:57:57 437.305
KKS-1 31 Jan 02:51:45 02:55:37 27° 266° (W) 02:59:26 437.445
ITAMSAT 1 31 Jan 02:54:06 02:59:22 81° 286° (WNW) 03:04:36 435.822/435.867
HORYU 2 31 Jan 02:54:20 02:57:54 24° 93° (E) 03:01:31 437.375
CUSAT 1 31 Jan 02:56:04 03:02:57 31° 86° (E) 03:09:57 437.405
MOZHAYETS 4 31 Jan 03:07:21 03:10:53 23° 65° (ENE) 03:14:30
ISS 31 Jan 03:08:18 03:11:36 78° 210° (SSW) 03:14:54 145.825
AUBIESAT-1 31 Jan 03:13:44 03:17:09 28° 258° (WSW) 03:20:19 437.475
AO-7 31 Jan 03:22:51 03:29:41 28° 92° (E) 03:36:42 29.400- 29.500
PCSat 31 Jan 03:26:53 03:31:31 30° 111° (ESE) 03:36:16 145.827
Gurwin Techsat 1B 31 Jan 04:02:26 04:07:07 32° 295° (WNW) 04:11:43 435.225
RS-15 31 Jan 04:09:10 04:19:11 46° 112° (ESE) 04:29:28 29.354- 29.394
BEESAT 2 31 Jan 04:15:10 04:17:40 15° 328° (NNW) 04:20:06 435.950
DANDE 31 Jan 04:17:48 04:26:15 82° 98° (E) 04:34:50 436.750
AIST 2 31 Jan 04:19:19 04:22:51 24° 321° (NW) 04:26:22 435.215
PRISM 31 Jan 04:21:42 04:23:51 14° 62° (ENE) 04:26:09 437.425
STRAND 1 31 Jan 04:22:23 04:23:39 11° 55° (NE) 04:25:10 437.568
GONETS M04 31 Jan 04:24:36 04:28:10 12° 313° (NW) 04:31:11
BEESAT 3 31 Jan 04:28:27 04:30:08 12° 332° (NNW) 04:31:44 437.485
YUBILEINY 31 Jan 04:28:32 04:33:38 17° 52° (NE) 04:39:10 435.215
HORYU 2 31 Jan 04:30:35 04:34:44 38° 291° (WNW) 04:38:48 437.375
ITAMSAT 1 31 Jan 04:35:34 04:38:08 13° 304° (WNW) 04:40:29 435.822/435.867
CUSAT 1 31 Jan 04:37:08 04:45:31 72° 284° (WNW) 04:53:45 437.405
JAS-2 31 Jan 04:39:42 04:45:14 50° 99° (E) 04:51:26 435.910
MOZHAYETS 4 31 Jan 04:43:31 04:47:55 43° 262° (W) 04:52:17
ISS 31 Jan 04:46:06 04:47:38 13° 226° (SW) 04:49:06 145.825
CUBESAT XI-V 31 Jan 05:04:44 05:08:37 28° 67° (ENE) 05:12:37 437.345
PCSat 31 Jan 05:09:33 05:14:47 47° 310° (NW) 05:20:03 145.827
Cubesat XI-IV 31 Jan 05:13:33 05:16:16 14° 86° (E) 05:19:14 437.490
AO-7 31 Jan 05:14:58 05:23:17 72° 293° (WNW) 05:31:31 29.400- 29.500
CUTE-I 31 Jan 05:32:05 05:36:00 21° 90° (E) 05:40:05 437.470
PRISM 31 Jan 05:54:52 05:58:57 62° 258° (WSW) 06:03:03 437.425
STRAND 1 31 Jan 05:56:57 06:02:00 68° 72° (ENE) 06:07:07 437.568
DANDE 31 Jan 06:03:24 06:10:42 29° 299° (WNW) 06:17:42 436.750
